Regional Weather Roundup
Issued by NWS

Home | Current Version | Previous Version | Graphics & Text | Print | Product List | Glossary On
Versions: 1 2 3 4 5 6 7 8 9 10 11 12 13 14 15 16 17 18 19 20 21 22 23 24 25 26 27 28 29 30 31 32 33 34 35 36 37 38 39 40 41 42 43 44 45 46 47 48 49 50
000
ASUS43 KMKX 011521
RWRWI

WISCONSIN REGIONAL WEATHER ROUNDUP
NATIONAL WEATHER SERVICE MILWAUKEE/SULLIVAN WI
1000 AM CDT TUE SEP 01 2015

NOTE: "FAIR" INDICATES FEW OR NO CLOUDS BELOW 12,000 FEET WITH NO
SIGNIFICANT WEATHER AND/OR OBSTRUCTIONS TO VISIBILITY.

WIZ001-002-006>008-014>016-023>028-011600-
NORTHWEST WISCONSIN

CITY           SKY/WX    TMP DP  RH WIND       PRES   REMARKS
SUPERIOR ARPT  PTSUNNY   74  71  88 W6        29.90S
ASHLAND        PTSUNNY   75  73  93 SW8       29.91F
HAYWARD        PTSUNNY   75  68  78 SW10      29.94F
SIREN          CLOUDY    75  69  81 SW6       29.93S
CUMBERLAND     MOSUNNY   73  70  88 S7        29.95S
RICE LAKE      MOSUNNY   75  70  82 S6        29.96F
CHETEK         MOSUNNY  N/A N/A N/A CALM      29.95S
LADYSMITH      PTSUNNY   74  72  93 S6        29.98S
EAU CLAIRE     SUNNY     76  70  82 S8        29.95R
MENOMONIE      SUNNY     75  74  98 SE8       29.94F
NEW RICHMOND     N/A    N/A N/A N/A MISG        N/A
OSCEOLA        PTSUNNY   76  73  88 S7        29.95S
$$

WIZ003>005-009-010-017-018-011600-
NORTH CENTRAL WISCONSIN

CITY           SKY/WX    TMP DP  RH WIND       PRES   REMARKS
MANITOWISH WTR PTSUNNY   74  70  88 SW9       29.97S
ARBOR VITAE    MOSUNNY   73  69  88 SW6       29.99S
WOODRUFF       MOSUNNY   73  69  88 SW6       29.99S
RHINELANDER    PTSUNNY   73  68  84 S6        30.00F HAZE
EAGLE RIVER    MOSUNNY   74  68  82 S5        29.99S
LAND O LAKES   PTSUNNY   76  68  77 SW7       30.00R
PHILLIPS       CLOUDY    72  70  93 SW6       29.97F
TOMAHAWK       CLOUDY    69  68  96 CALM      30.00S FOG
MEDFORD        CLOUDY    72  71  97 S7        29.99F FOG
MERRILL        PTSUNNY   76  72  89 W6        30.00R
$$

WIZ029-030-035-036-043>047-011600-
CENTRAL WISCONSIN

CITY           SKY/WX    TMP DP  RH WIND       PRES   REMARKS
WAUSAU         MOSUNNY   74  69  85 S3        29.98S HAZE
MOSINEE        NOT AVBL
MARSHFIELD     MOSUNNY   77  70  79 SW6       29.99S
STEVENS POINT  SUNNY     76  70  81 W7        30.00S
WAUPACA        SUNNY     80  73  80 CALM      30.00S HX  84
WAUTOMA        SUNNY     79  73  81 VRB3      30.00F HX  82
WISC RAPIDS    MOSUNNY   78  70  76 SW6       30.00S HX  80
CAMP DOUGLAS   MOSUNNY   79  79 100 SW6       29.99R HX  83
$$

WIZ011>013-019>022-031-037>040-048>050-011600-
NORTHEAST WISCONSIN

CITY           SKY/WX    TMP DP  RH WIND       PRES   REMARKS
ANTIGO         PTSUNNY   73  70  89 CALM      30.01S FOG
SHAWANO        SUNNY     78  71  79 CALM      29.99S HX  80
OCONTO         CLOUDY    74  74 100 SW3       29.98F
STURGEON BAY   MOSUNNY   77  70  78 SW7       30.01F
GREEN BAY      SUNNY     78  72  81 SW7       29.99S HAZE    HX  80
MANITOWOC      SUNNY     69  64  84 MISG      30.01F
APPLETON       MOSUNNY   77  72  83 SW8       29.99S
CLINTONVILLE   MOSUNNY   77  70  78 SW7       29.99S
OSHKOSH        SUNNY     78  71  79 SW7       30.00R HX  80
$$

WIZ032>034-041-042-053>061-011600-
SOUTHWEST WISCONSIN

CITY           SKY/WX    TMP DP  RH WIND       PRES   REMARKS
LA CROSSE      SUNNY     77  71  82 S8        29.96F
SPARTA         MOSUNNY   79  69  70 S3        29.98F HX  82
VIROQUA          N/A     78  73  86 S7        30.00F
BOSCOBEL       SUNNY     81  71  71 CALM      29.99S HX  85
PRAIRIE DU CHI SUNNY     78  70  76 S5        29.98F HX  80
PLATTEVILLE    SUNNY     78  74  87 S8        30.02S HX  80
$$

WIZ056-057-062-063-064-067-068-011600-
SOUTH CENTRAL WISCONSIN

CITY           SKY/WX    TMP DP  RH WIND       PRES   REMARKS
REEDSBURG      MOSUNNY   78  72  82 S3        30.00S HX  80
BARABOO/DELLS  SUNNY     80  70  70 SW8       30.00F HX  83
LONE ROCK      MOSUNNY   79  71  76 S5        30.00F HX  82
MINERAL POINT  SUNNY     81  73  78 S7        30.02F HX  85
MADISON        SUNNY     79  70  74 S7        30.01F HX  82
MIDDLETON      SUNNY     82  70  66 SW7       30.02S HX  85
WATERTOWN      SUNNY     79  77  94 SW7       30.02S HX  83
MONROE         SUNNY     77  70  78 SW7       30.04S
JANESVILLE     SUNNY     79  73  83 SW6       30.02F HX  82
$$

WIZ051-052-058>065-066-070>072-011600-
SOUTHEAST WISCONSIN

CITY           SKY/WX    TMP DP  RH WIND       PRES   REMARKS
MILWAUKEE      MOSUNNY   80  71  74 SW8       30.03S HX  84
WAUKESHA       SUNNY     75  70  83 SW3       30.04F
MILWAUKEE/TIMM SUNNY     79  68  69 S6        30.03S HX  81
RACINE         MOSUNNY   81  71  71 SW6       30.05S HX  85
BURLINGTON     SUNNY     78  72  80 S6        30.04S HX  81
KENOSHA        SUNNY     81  73  76 SW6       30.04F HX  86
FOND DU LAC    SUNNY     78  72  81 SW7       30.01S HX  80
SHEBOYGAN      SUNNY     78  73  84 S6        30.01F HX  81
WEST BEND      SUNNY     79  70  73 CALM      30.02F HX  81
JUNEAU         SUNNY     76  71  86 SW6       30.03F
$$

LSZ147-162-011600-
LAKE SUPERIOR

STATION/POSITION TIME  TEMP    WIND        PRES    WAVE
                       AIR SEA DIR/SP/G            HT/PER
                 (UTC) (F)     (DEG/KT/KT) (MB)    (FT/S)
W MID LAKE BUOY  1450   59 54  230/  6/  6 1011.9F   1
DEVILS ISLAND    1500   67     240/ 10/ 11 1012.1S
PORT WING        1440   74     220/  5/  8 1012.5S
SAXON HARBOR     1400   76     210/  1/  6 1012.2S
$$

LMZ867-665-643>646-011600-
LAKE MICHIGAN

STATION/POSITION TIME  TEMP    WIND        PRES    WAVE
                       AIR SEA DIR/SP/G            HT/PER
                 (UTC) (F)     (DEG/KT/KT) (MB)    (FT/S)
CHAMBERS ISLAND  1400   75     180/  2/  9 1015.2F
S GREEN BAY BUOY 1400   68 64  200/  6/  6 1016.7F
N MID LAKE BUOY  1450   66 65  190/ 14/ 14 1015.2F   2/ 4
NORTHPORT PIER   1400   70     180/  5/  7 1015.6F
SISTER BAY       1404   76     140/  6/  8   N/A
ALGOMA LAKESHORE 1444             CALM       N/A
KEWAUNEE LAKESHO 1400   51     150/  5/  7 1015.0F
SHEBOYGAN LAKESH 1500   66     170/ 17/ 18 1016.2F
PORT WASHINGTON  1400   59     150/  2/  4 1017.3F
ATWATER BUOY     1500   58 53  150/  8/ 10 1017.9F
MILWAUKEE LAKESH 1410   62     170/  2/  2   N/A
S MID LAKE BUOY  1450   71 70  180/ 10/ 12 1017.2S   1
KENOSHA   LAKESH 1500   67     180/ 10/ 11 1016.9S
$$

TC  - TEMPERATURE IN CELSIUS
VSB - VISIBILITY IN STATUTE MILES
WCI - WIND CHILL INDEX
HX  - HEAT INDEX




USA.gov is the U.S. government's official web portal to all federal, state and local government web resources and services.